This is the latest recevied weather packets stored in our database for station/object HB9TJM-8. If no packets are shown the sender has not sent any weather packets the latest 10 day(s).
| Time | Temp. | Humidity | Pressure | Rain* | Wind** | Luminosity | Snow |
|---|---|---|---|---|---|---|---|
| 1777405953 | 10.56° C | 84% | 1017.1 hPa | 0.25 mm | - | 0 W/m² | - |
| 1777405338 | 10.56° C | 86% | 1017.2 hPa | 0 mm | - | 0 W/m² | - |
| 1777404723 | 10.56° C | 85% | 1017.4 hPa | 0 mm | - | 0 W/m² | - |
| 1777404723 | 10.56° C | 85% | 1017.4 hPa | 0 mm | - | 0 W/m² | - |
| 1777404108 | 11.11° C | 81% | 1017.5 hPa | 0 mm | - | 0 W/m² | - |
| 1777403801 | 11.11° C | 81% | 1017.7 hPa | 0 mm | - | 0 W/m² | - |
| 1777403801 | 11.11° C | 81% | 1017.7 hPa | 0 mm | - | 0 W/m² | - |
| 1777403185 | 11.11° C | 81% | 1017 hPa | 0 mm | - | 0 W/m² | - |
| 1777403185 | 11.11° C | 81% | 1017 hPa | 0 mm | - | 0 W/m² | - |
| 1777401954 | 11.11° C | 80% | 1017 hPa | 0 mm | - | 0 W/m² | - |
| 1777401339 | 11.67° C | 80% | 1016.5 hPa | 0 mm | - | 1 W/m² | - |
| 1777401031 | 11.67° C | 78% | 1016.8 hPa | 0 mm | - | 3 W/m² | - |
| 1777401030 | 11.67° C | 78% | 1016.8 hPa | 0 mm | - | 3 W/m² | - |
| 1777400415 | 11.11° C | 79% | 1016.6 hPa | 0.25 mm | - | 3 W/m² | - |
| 1777399492 | 11.67° C | 80% | 1017.1 hPa | 0.25 mm | - | 16 W/m² | - |
| 1777398569 | 11.67° C | 76% | 1016.7 hPa | 0.51 mm | - | 25 W/m² | - |
| 1777397954 | 11.67° C | 78% | 1016.5 hPa | 0.51 mm | - | 29 W/m² | - |
| 1777397646 | 11.67° C | 77% | 1016.8 hPa | 0.51 mm | - | 31 W/m² | - |
| 1777397646 | 11.67° C | 77% | 1016.8 hPa | 0.51 mm | - | 31 W/m² | - |
| 1777396724 | 12.22° C | 75% | 1016.5 hPa | 0.25 mm | - | 31 W/m² | - |
| 1777396109 | 12.22° C | 72% | 1016.5 hPa | 0.25 mm | - | 30 W/m² | - |
| 1777394880 | 12.78° C | 72% | 1016.3 hPa | 0 mm | - | 40 W/m² | - |
| 1777393957 | 12.78° C | 70% | 1016.5 hPa | 0 mm | - | 72 W/m² | - |
| 1777393649 | 12.78° C | 69% | 1016.1 hPa | 0 mm | - | 50 W/m² | - |
| 1777392420 | 13.33° C | 70% | 1016.5 hPa | 0 mm | - | 72 W/m² | - |
* Rain latest hour (hover to see other rain measurements)
** Current wind speed in m/s (hover to see current wind gust speed)